Weather Roundup
Issued by NWS

Home | Current Version | Previous Version | Text Only | Print | Product List | Glossary On
Versions: 1 2 3 4 5 6 7 8 9 10 11 12 13 14 15 16 17 18 19 20 21 22 23 24 25 26 27 28 29 30 31 32 33 34 35 36 37 38 39 40 41 42 43 44 45 46 47 48 49 50
000
NZUS93 KARX 242359
HRRWXR

CURRENT HOURLY OBSERVATIONS ACROSS
MUCH OF THE UPPER MISSISSIPPI VALLEY
NATIONAL WEATHER SERVICE LA CROSSE WI
600 PM CST SAT JAN 24 2015


...SOUTHEAST MINNESOTA...


CITY           SKY/WX    TMP DP  RH WIND       PRES   REMARKS
ROCHESTER      CLOUDY    34  31  88 S5        29.59S WCI  30
ROCHESTER/MAYO CLOUDY    36  31  82 SE6       29.59S WCI  31
WINONA         CLOUDY    34  32  93 CALM      29.62R
AUSTIN         CLOUDY    37  34  87 CALM      29.59S
ALBERT LEA     CLOUDY    37  36  93 SW6       29.58S WCI  33
DODGE CENTER   CLOUDY    34  34 100 CALM      29.58S
PRESTON        CLOUDY    34  32  91 CALM      29.60S
OWATONNA       CLOUDY    37  36  93 CALM      29.58S
FARIBAULT      CLOUDY    36  32  87 CALM      29.59R
$$

...ELSEWHERE IN MINNESOTA...


CITY           SKY/WX    TMP DP  RH WIND       PRES   REMARKS
MINNEAPOLIS    CLOUDY    39  30  70 CALM      29.59S
INTNL FALLS    CLEAR     15   5  64 NE9       29.74R WCI   3
DULUTH         FLURRIES  27  23  85 E18       29.63R WCI  14
RED WING       CLOUDY    36  30  80 CALM      29.60R
REDWOOD FALLS  CLOUDY    37  33  85 NW3       29.57S
MANKATO        CLOUDY    37  32  81 W5        29.59R WCI  34
WORTHINGTON    CLOUDY    36  30  80 SW7       29.58S WCI  30
FAIRMONT       CLOUDY    36  30  80 W6        29.57S WCI  31
$$

...SOUTHWEST WISCONSIN...


CITY           SKY/WX    TMP DP  RH WIND       PRES   REMARKS
LA CROSSE      CLOUDY    37  30  75 SE3       29.61R
PRAIRIE DU CHI CLOUDY    39  32  76 CALM      29.62S
BOSCOBEL       CLOUDY    38  32  79 SW5       29.63R WCI  34
LONE ROCK      NOT AVBL
PLATTEVILLE    MOCLDY    37  33  87 S3        29.63S
FORT MC COY    MOCLDY    33  29  85 CALM      29.62R
VIROQUA        FAIR      36  32  85 SW5       29.59S WCI  32
WIS DELLS      NOT AVBL
$$

...ELSEWHERE IN WISCONSIN...


CITY           SKY/WX    TMP DP  RH WIND       PRES   REMARKS
MILWAUKEE      CLOUDY    36  29  75 SW6       29.64R WCI  31
MADISON        MOCLDY    32  28  85 CALM      29.62F
GREEN BAY      CLOUDY    35  32  88 W6        29.62R WCI  30
EAU CLAIRE     MOCLDY    32  27  81 NE5       29.61R WCI  27
BLACK RVR FLS  FAIR      32  28  85 CALM      29.61R
MEDFORD        CLOUDY    33  29  85 CALM      29.59S
WAUSAU         CLOUDY    35  30  82 CALM      29.59S
WIS RAPIDS     CLOUDY    33  29  85 CALM      29.62F
MARSHFIELD     CLOUDY    33  30  88 CALM      29.60S
RICE LAKE      CLOUDY    35  30  83 CALM      29.62R
$$

...NORTHEAST IOWA...


CITY           SKY/WX    TMP DP  RH WIND       PRES   REMARKS
DECORAH        CLOUDY    39  34  81 CALM      29.60S
MASON CITY     CLOUDY    37  33  85 SW7       29.59F WCI  32
CHARLES CITY   CLOUDY    37  37 100 W9        29.61S WCI  31
OELWEIN        CLOUDY    37  34  87 SW8       29.62S WCI  31
$$

...ELSEWHERE IN IOWA...


CITY           SKY/WX    TMP DP  RH WIND       PRES   REMARKS
DES MOINES     CLOUDY    48  29  47 W9        29.65S
IOWA CITY      CLOUDY    40  32  73 CALM      29.66S
FORT DODGE     MOCLDY    37  30  75 CALM      29.61F
$$

...NORTHERN ILLINOIS...


CITY           SKY/WX    TMP DP  RH WIND       PRES   REMARKS
CHICAGO-OHARE  MOCLDY    33  29  85 W7        29.68R WCI  27
CHICAGO-MIDWAY CLOUDY    37  31  78 W6        29.69R WCI  32
MOLINE         MOCLDY    41  33  73 S6        29.66F
ROCKFORD       MOCLDY    32  29  88 CALM      29.68R
PEORIA         PTCLDY    42  34  73 SW6       29.71R
$$

NOTE: "FAIR" INDICATES FEW OR NO CLOUDS BELOW 12,000 FEET WITH NO
SIGNIFICANT WEATHER AND/OR OBSTRUCTIONS TO VISIBILITY. WIND
SPEEDS ARE IN MILES-PER-HOUR.



USA.gov is the U.S. government's official web portal to all federal, state and local government web resources and services.